Location: Bruchsal
(49.1250°N, 8.5844°E)
Time: 18:09:48
(UTC+02:00)

ISS - Pass Details

Date: 24 April 2026
Orbit: 414 x 424 km, 51.6° (Epoch: 14 May)

Event Time Altitude Azimuth Distance (km) Brightness Sun altitude
Exits shadow 03:58:19 24° 137° (SE) 912 -2.2 -19.3°
Drops below altitude 10° 04:00:54 10° 87° (E) 1,502 -0.4 -19.0°
Sets 04:03:15 0° 73° (ENE) 2,373 1.1 -18.8°
